Location: Audinghen
(50.8518°N, 1.6129°E)
Time: 17:48:25
(UTC+00:00)

Cosmos 1025 Rocket - Pass Details

Date: 07 August 2020
Orbit: 594 x 618 km, 82.5° (Epoch: 25 September)

Event Time Altitude Azimuth Distance (km) Brightness Sun altitude
Rises 01:29:15 0° 344° (NNW) 2,856 7.3 -20.0°
Reaches altitude 10° 01:31:32 10° 338° (NNW) 1,946 6.2 -19.8°
Maximum altitude 01:35:37 44° 267° (W) 833 3.5 -19.6°
Enters shadow 01:36:09 41° 245° (WSW) 865 3.4 -19.6°
